Find Starlink 11539

NORAD ID: 62987 Int'l Des: 2025-031 Owner: SPXS Country: US Constellation: starlink operational
LEOCIRCULAR

Live Position

Loading 3D Globe...

About Starlink 11539

Description loading...

Upcoming Passes

Passes for default location (London). Set your location on the main map for personalized predictions.

Altitude History

Loading altitude history...

Two-Line Element Set

1 62987U 25031G 26126.04642308 .00177667 00000-0 13598-2 0 9999
2 62987 43.0009 15.6849 0001121 273.6790 86.3950 15.70820534 71769
Epoch: May 6, 2026 • Age: 10 hours

Current Status

Altitude 359.8 km
Velocity 7.70 km/s
Sub-Earth Point 42.19°N, 93.35°E
Launch Date Feb 11, 2025
Age 1.2 years
Type internet

Technical Details

Classification Payload
Mass 960.00 kg
Dry Mass 910.00 kg
Total Mass 960.00 kg
Length 0.30 m
Diameter 4.10 m
Span 29.00 m
Shape Box + pan
Manufacturer SPXS
Bus Type Starlink V2MD
Phase Status In Orbit
Owner/State SPXS/US

Most Searched